Location: Drummondville
(45.8830°N, 72.4830°W)
Time: 06:00:36
(UTC-05:00)

ISS - Pass Details

Date: 16 November 2017
Orbit: 402 x 407 km, 51.6° (Epoch: 22 November)

Event Time Altitude Azimuth Distance (km) Brightness Sun altitude
Exits shadow 05:48:51 15° 258° (WSW) 1,208 -2.0 -11.0°
Maximum altitude 05:50:21 19° 223° (SW) 1,022 -2.1 -10.8°
Drops below altitude 10° 05:52:44 10° 176° (S) 1,447 -0.8 -10.4°
Sets 05:55:11 0° 157° (SSE) 2,301 0.6 -10.0°
